Theta_e
302 302 304 305 306 308 303 298 286 295 295 287 285 284 284 284 282 284 284 283 283 282 281 282 279 280 281 284 283 279 280 278 278 276 273 275 276 275 275 273 270 271 269 272
300 301 302 304 305 307 300 289 287 296 296 284 284 284 282 282 281 282 284 282 283 280 281 278 278 281 282 283 282 280 280 279 279 277 274 276 274 274 273 272 271 270 270 278
299 299 302 304 305 309 301 293 285 286 288 287 285 283 284 283 284 283 285 283 282 279 280 278 277 279 281 283 283 284 283 277 277 280 279 274 272 272 273 273 271 272 272 275
298 298 300 303 306 308 302 293 286 287 285 285 284 284 285 282 282 283 284 282 281 282 279 276 275 279 280 282 285 282 280 275 271 273 268 268 271 271 272 270 271 273 273 267
297 298 300 302 305 306 297 291 289 287 286 285 283 284 284 284 285 284 281 281 282 282 278 280 279 279 280 280 282 280 278 276 271 271 265 265 269 272 271 271 270 267 268 268
297 297 298 300 302 305 295 292 293 292 287 285 283 284 285 286 286 286 284 283 281 279 281 282 282 282 281 282 281 279 277 276 273 277 269 270 273 271 269 271 270 273 273 280
297 297 297 298 300 302 299 295 294 290 285 286 285 286 286 286 285 285 283 284 283 282 283 283 282 280 280 280 279 280 274 273 273 275 272 276 280 266 270 274 273 271 271 271
297 296 297 297 298 301 298 297 294 290 285 288 287 286 286 285 284 285 283 283 284 284 282 280 277 276 276 273 276 277 277 277 274 273 273 280 276 271 272 275 284 275 275 272
297 296 296 296 297 299 299 299 298 294 287 287 289 286 285 283 282 281 282 283 285 285 281 278 276 276 276 272 273 279 278 276 275 272 275 276 285 276 274 275 283 274 277 273
297 296 296 295 296 297 298 298 298 294 287 290 287 287 285 285 283 283 281 281 280 283 279 276 276 278 271 275 271 271 273 274 272 271 274 279 281 277 277 279 287 274 278 276
297 296 296 295 295 295 297 295 297 294 287 288 289 290 286 284 285 282 281 281 279 279 277 277 279 275 275 273 275 273 273 271 271 272 271 276 277 276 280 287 274 276 279 276
297 297 296 296 294 294 295 292 296 295 288 287 288 290 290 289 290 286 282 283 281 282 280 279 277 275 274 274 279 275 274 278 277 277 281 282 279 284 281 276 280 275 279 277
298 298 297 296 295 294 294 293 294 292 285 287 285 286 287 288 288 290 283 283 286 283 285 282 279 276 278 278 277 276 276 278 278 278 283 281 279 282 278 276 280 279 281 279
299 298 297 296 295 294 293 291 295 292 287 283 285 286 284 286 287 287 287 285 285 285 284 281 280 278 282 280 279 278 281 278 278 279 283 282 281 281 284 280 277 278 279 280
300 298 298 296 295 294 293 292 294 294 288 283 285 284 283 284 285 285 286 285 284 284 281 280 278 281 278 279 277 277 280 281 280 283 287 286 285 284 283 282 279 279 278 277
298 298 298 296 295 293 292 284 292 292 292 285 283 282 280 281 283 284 284 285 285 285 283 282 283 282 280 279 276 281 282 284 286 286 284 284 283 282 282 282 283 280 280 280
297 298 297 296 294 292 285 283 291 294 292 285 283 282 280 280 283 283 283 284 283 283 283 281 282 280 282 280 277 283 286 285 284 283 283 283 281 283 281 281 281 279 278 279
296 298 296 295 294 292 286 288 293 293 286 285 282 279 276 281 279 278 282 280 280 281 281 279 278 279 280 276 280 283 287 284 280 281 283 283 278 277 276 276 275 275 275 276
296 296 294 290 286 282 283 290 294 292 287 282 283 277 277 280 277 278 278 280 276 277 277 276 277 276 274 279 281 284 285 282 284 276 276 275 277 278 275 275 274 276 277 275
296 289 283 278 280 288 292 287 283 282 284 283 280 274 274 278 276 275 275 276 276 273 275 273 272 274 279 282 283 284 283 282 278 278 276 272 274 275 275 274 277 278 279 276
284 280 278 282 287 283 284 275 279 280 278 282 279 276 275 278 275 275 276 274 274 271 272 272 273 271 276 277 277 279 278 280 280 278 275 275 278 278 277 274 274 274 274 275
284 283 285 284 278 274 273 274 276 276 276 276 274 274 278 277 277 275 273 272 272 271 267 270 270 276 280 275 273 270 268 269 271 268 271 271 272 272 271 271 273 273 274 273
282 277 274 274 270 269 267 263 269 272 275 275 273 274 274 274 276 274 273 270 270 267 267 269 274 280 275 273 271 269 266 266 266 266 264 265 266 265 266 270 270 268 271 272
274 272 265 268 264 267 268 272 272 276 275 275 274 272 275 274 274 273 272 269 267 266 264 270 278 277 273 269 268 268 269 266 265 265 264 263 264 265 264 264 266 268 270 270
270 269 264 264 270 269 274 272 272 276 274 276 274 271 274 273 273 272 266 264 266 268 272 277 276 271 269 269 267 267 268 267 265 263 263 264 263 264 265 264 264 268 268 269
272 270 267 266 268 268 268 275 275 278 278 278 276 274 272 275 273 267 269 272 270 277 273 273 269 267 266 266 264 264 265 265 265 265 264 264 265 265 266 265 266 266 269 268
274 270 264 269 270 271 273 276 277 280 277 274 276 271 275 271 270 269 271 272 278 274 270 267 268 268 266 264 263 264 265 265 265 265 265 265 266 266 269 269 267 268 267 267
Wind_Speed
14 16 18 18 19 20 3 2 1 3 3 1 0 2 1 2 1 2 4 3 0 3 2 2 4 3 1 6 7 4 4 1 4 0 1 2 1 3 3 3 3 4 5 8
12 14 16 19 19 18 1 2 2 1 2 1 2 1 2 4 3 5 2 4 4 1 3 3 3 2 2 6 5 3 6 3 4 3 3 2 5 5 4 4 2 6 4 4
10 12 15 19 23 11 3 2 2 1 2 1 1 2 3 2 3 5 3 2 3 1 3 3 3 2 3 4 2 4 5 3 5 4 2 2 4 6 9 5 4 2 10 11
11 12 13 17 20 6 0 1 1 0 1 2 3 1 2 2 3 4 3 3 8 5 4 2 5 3 3 3 6 3 2 4 2 5 2 3 4 5 11 12 4 7 3 6
10 12 13 16 20 12 2 1 2 0 2 2 4 5 3 3 2 4 4 6 3 7 5 2 2 5 5 4 7 5 3 2 1 4 1 3 7 9 11 14 5 13 11 14
8 11 14 14 18 11 2 0 1 0 4 3 2 2 3 2 1 4 2 5 3 6 6 7 3 1 2 2 6 9 5 3 2 4 1 5 7 7 13 6 7 6 5 1
6 9 12 13 14 14 2 1 1 1 2 3 4 3 4 4 5 4 1 3 3 1 1 1 3 6 6 4 5 3 5 3 1 5 3 3 1 2 3 6 6 15 3 5
6 6 9 12 12 12 1 0 1 2 2 2 3 3 4 2 1 3 3 4 1 2 1 2 2 1 1 2 1 3 1 3 1 3 3 7 3 6 8 8 5 14 13 5
7 6 6 9 11 10 2 1 1 2 0 4 0 2 2 2 2 1 1 2 3 2 1 2 3 3 0 2 3 3 5 4 1 2 3 4 2 3 5 2 4 10 13 11
8 6 5 5 9 7 3 2 1 2 2 2 4 4 3 3 1 1 2 3 4 2 2 3 4 2 2 4 8 7 4 4 6 4 5 10 2 6 6 2 3 7 13 12
11 8 6 5 5 8 4 4 0 2 2 3 6 6 4 2 3 2 4 2 2 2 4 4 2 3 3 3 4 7 9 10 6 4 4 7 9 8 7 2 1 4 10 11
15 13 9 6 4 5 5 2 0 1 2 3 2 3 3 4 3 4 5 2 3 4 4 3 1 3 2 1 4 2 5 6 4 11 7 2 14 1 3 2 4 8 11 11
19 17 13 9 6 4 3 2 1 1 2 3 1 6 0 1 3 1 3 2 4 4 1 2 0 7 4 4 6 3 7 5 4 2 3 12 11 12 5 6 4 6 11 14
22 20 17 12 8 5 3 1 0 2 2 4 3 1 4 0 2 3 1 3 4 3 2 2 3 4 3 3 2 4 1 7 4 8 11 6 13 14 10 12 6 6 10 13
21 23 20 15 10 6 2 3 4 3 3 3 3 2 3 1 4 6 4 5 4 3 4 4 5 3 2 2 2 7 9 9 8 8 7 3 4 3 11 14 16 13 14 12
16 23 21 15 11 6 1 3 1 4 3 4 4 3 1 1 4 6 6 5 3 2 3 3 4 2 4 5 6 7 12 9 11 7 2 4 3 3 4 14 14 14 16 15
19 24 24 16 13 3 3 4 5 8 2 2 5 4 1 3 3 2 2 2 2 2 3 5 3 4 5 4 9 4 10 15 12 7 3 6 5 5 5 5 6 8 4 8
18 21 20 15 12 4 5 2 11 6 1 3 5 1 2 5 3 3 2 3 2 4 3 1 3 2 3 8 12 21 22 5 4 9 13 4 3 2 3 3 6 7 10 10
18 20 16 4 3 2 4 3 3 4 4 4 4 4 3 4 1 1 2 2 4 1 3 3 3 3 10 18 15 17 11 10 6 1 1 3 7 5 6 6 7 9 12 10
25 9 3 3 5 6 5 3 3 3 3 5 4 2 3 3 2 2 1 1 3 4 3 2 4 8 23 19 19 17 6 9 8 4 3 4 7 11 9 12 8 11 11 10
2 3 3 1 0 2 2 3 4 4 5 6 3 6 4 4 4 4 4 2 2 4 2 3 3 9 8 1 6 9 3 4 11 2 2 2 3 5 9 8 9 8 7 11
6 7 5 2 3 3 3 4 2 6 7 1 4 6 4 4 2 3 3 3 1 7 2 2 6 10 3 2 1 1 2 2 3 1 4 4 4 3 3 4 5 8 8 5
4 5 4 2 2 3 5 5 4 3 5 1 3 3 4 3 2 3 2 5 6 2 3 7 9 3 1 2 1 1 3 3 3 3 3 3 4 4 5 7 5 4 6 6
3 4 3 5 2 4 6 4 3 1 2 6 3 4 4 3 5 4 5 1 1 3 4 9 5 0 2 3 2 2 1 3 4 5 3 4 5 5 4 5 4 4 5 5
3 4 4 4 5 2 3 2 1 1 1 3 3 3 4 4 5 4 6 3 8 8 8 6 1 2 3 3 1 2 2 3 3 3 3 4 4 4 4 3 4 4 2 4
3 2 1 3 2 3 1 3 2 1 2 2 2 5 6 7 5 7 12 6 9 6 6 1 2 2 2 2 1 2 3 3 3 3 3 3 2 1 1 2 3 1 3 4
5 5 1 3 3 4 4 4 5 5 2 2 5 6 9 4 4 5 7 9 4 1 1 1 1 2 3 3 2 1 1 3 2 2 3 2 2 4 4 8 5 5 5 5
Wind_Direction
350 350 339 346 345 349 39 81 68 334 321 81 77 237 290 44 346 292 268 252 144 259 280 255 243 242 255 150 155 154 162 263 259 71 7 326 19 168 164 212 152 238 285 281
352 340 335 338 336 326 323 90 105 321 360 244 228 135 230 220 183 224 250 215 216 161 223 239 228 236 71 151 174 164 162 198 285 189 186 175 226 176 153 105 110 224 271 315
5 344 334 343 331 313 143 146 126 43 61 91 268 228 219 233 200 251 173 203 154 242 226 212 295 244 142 176 168 136 151 260 255 259 321 42 202 187 186 185 213 165 237 297
350 346 345 348 347 101 91 9 232 206 155 225 214 195 304 210 247 228 216 233 219 206 237 223 230 206 154 174 171 110 187 256 231 272 284 251 265 206 192 201 190 236 19 260
352 341 352 349 354 359 87 146 164 72 109 131 173 197 222 227 211 180 220 234 161 215 235 239 346 175 206 193 175 190 138 255 276 267 132 223 269 227 214 228 233 264 287 283
340 343 354 353 357 359 74 109 35 51 151 159 177 221 243 280 142 197 244 226 176 198 249 296 281 188 360 205 172 189 173 199 268 268 279 275 273 216 187 179 199 189 206 183
331 339 347 356 1 12 330 144 115 131 241 198 205 211 210 255 218 277 232 200 237 86 195 162 86 58 65 79 84 135 152 160 212 288 297 269 337 148 211 231 218 210 265 222
290 325 340 350 353 3 328 313 238 184 262 245 253 243 238 313 287 238 235 200 60 151 168 237 285 111 308 21 19 161 228 151 229 283 277 304 179 197 183 186 279 195 193 184
278 297 328 339 346 345 333 260 228 266 302 249 139 150 178 242 225 249 204 89 144 212 257 211 249 250 49 182 132 151 119 88 271 181 256 253 243 187 196 211 275 189 173 174
241 269 294 318 339 333 346 287 195 274 244 220 149 216 206 152 183 272 151 163 181 292 180 216 217 252 74 231 178 170 161 192 213 207 262 279 151 148 166 226 248 178 176 166
240 239 252 285 321 324 350 290 253 274 261 245 193 185 157 143 189 213 134 153 175 160 207 216 243 220 182 237 159 181 175 163 188 178 225 278 148 119 196 208 68 185 167 172
234 239 235 235 278 319 325 272 353 359 234 259 289 241 238 228 190 149 183 308 158 179 187 211 281 245 185 269 262 205 236 206 190 209 220 46 197 222 211 197 148 195 189 172
227 234 234 227 229 264 307 299 345 312 325 272 239 229 67 298 238 316 169 216 177 199 86 119 322 261 162 221 235 235 223 176 250 300 223 233 217 224 221 198 232 196 207 177
221 220 228 220 218 233 241 190 179 298 279 267 252 52 254 44 216 201 104 121 115 116 161 182 215 246 211 245 309 237 129 150 216 260 274 263 243 228 211 206 209 205 185 188
228 218 220 213 208 214 252 217 212 200 260 290 294 206 182 128 196 193 172 167 156 174 181 193 217 219 217 211 284 236 186 186 193 229 223 222 256 202 189 193 200 199 179 179
237 215 220 206 195 172 86 320 15 188 151 261 258 43 129 75 205 198 193 192 198 212 216 212 222 206 180 245 247 252 213 222 236 246 203 237 285 248 185 211 195 187 194 190
238 204 216 195 186 146 171 195 145 86 136 255 270 226 115 188 165 173 169 189 206 228 224 229 239 192 203 249 246 257 249 228 229 219 125 265 199 247 181 175 165 154 183 205
226 203 207 179 177 121 268 294 248 132 237 243 259 252 245 191 172 185 186 177 187 207 260 246 221 159 232 257 241 243 249 228 231 221 213 224 127 103 132 125 133 168 190 189
203 177 178 102 91 164 236 247 332 156 202 260 230 192 237 156 137 100 184 216 210 69 242 226 186 192 226 224 234 244 226 202 221 133 224 176 228 206 178 170 184 196 205 190
174 129 133 154 199 232 264 62 141 187 209 235 257 50 172 160 152 181 156 233 235 233 206 124 211 250 249 244 238 251 210 206 150 151 259 200 243 220 202 210 204 207 205 195
62 119 113 145 68 75 161 207 193 193 231 216 178 164 157 212 155 179 213 206 206 249 159 221 228 262 245 39 267 265 285 215 203 241 47 128 203 205 207 215 217 214 199 205
120 104 98 109 71 77 129 210 232 210 228 187 172 186 164 161 214 135 184 215 164 249 114 216 252 252 234 222 242 41 15 300 254 252 254 263 259 244 245 261 236 212 215 196
58 52 70 95 252 136 179 219 258 302 352 17 315 191 140 139 213 95 158 214 227 129 195 234 240 254 198 179 172 104 37 4 320 310 289 267 258 237 217 237 223 253 219 192
99 137 146 177 219 225 198 176 174 228 302 298 247 262 185 160 167 147 202 139 219 230 234 234 242 175 68 100 40 320 332 351 320 292 280 273 268 269 263 248 244 219 217 188
138 107 193 199 214 243 174 135 68 181 244 320 263 244 239 164 164 189 105 174 238 220 228 229 184 168 169 133 131 319 327 321 303 304 311 300 278 269 284 262 238 222 195 170
104 171 109 251 113 287 80 172 191 175 270 267 236 257 245 186 167 167 209 189 219 228 224 335 105 120 139 99 14 338 330 329 332 313 282 273 262 156 19 78 84 165 152 148
190 229 207 169 128 197 236 214 208 175 197 263 282 255 242 107 177 237 199 219 217 303 149 111 19 124 134 107 95 56 63 82 59 35 27 29 74 128 98 73 39 48 52 63